Home > Weather > Coburg > Past weeks

Flag for Germany Past Weather in Coburg, Bavaria, Germany — Yesterday and Last 2 Weeks

Now
66 °F

Clear.


Feels Like: 66 °F
Forecast: 62 / 78 °F
Wind: 8 mph from West

Location: Erfurt-Bindersleben

Current Time: Jul 25, 2016 at 2:29:01 AM

Latest Report: Jul 25, 2016 at 1:50 AM


Visibility: 10 mi

Pressure: 30.09 "Hg

Humidity: 83%

Dew Point: 61 °F

Location of CoburgLocation

Past Weather in Coburg — Graph

°F

Coburg Temperature Yesterday

Maximum temperature yesterday: 82 °F (at 2:20 PM)
Minimum temperature yesterday: 63 °F (at 2:50 AM)
Average temperature yesterday: 72 °F

High & Low Weather Summary for the Past Weeks

 TemperatureHumidityPressure
High88 °F (Jul 20, 2:50 PM)100% (Jul 14, 7:50 AM)30.30 "Hg (Jul 14, 7:50 AM)
Low46 °F (Jul 16, 4:50 AM)27% (Jul 20, 2:50 PM)29.80 "Hg (Jul 11, 3:50 AM)
Average67 °F69%30.06 "Hg
* Reported Jul 10 1:20 AM — Jul 25 1:20 AM, Coburg, Weather by CustomWeather, © 2016

Note: Actual official high and low records may vary slightly from our data, if they occured in-between our weather recording intervals... More about our weather records

Advertising

Coburg Weather History for the Previous 24 Hours

Scroll right to see more
 ConditionsComfort  
Time TempWeatherWind HumidityBarometerVisibility
1:20 AM
Mon, Jul 25
66 °FClear.8 mph83%30.09 "Hg10 mi
12:50 AM68 °FClear.5 mph78%30.09 "Hg10 mi
12:20 AM68 °FPassing clouds.3 mph78%30.09 "HgN/A
11:50 PM
Sun, Jul 24
70 °FClear.1 mph69%30.09 "Hg10 mi
11:20 PM72 °FClear.2 mph65%30.09 "Hg10 mi
10:50 PM70 °FClear.6 mph73%30.09 "Hg10 mi
10:20 PM70 °FClear.5 mph69%30.09 "Hg10 mi
9:50 PM70 °FSunny.5 mph73%30.09 "Hg10 mi
9:20 PM70 °FSunny.6 mph73%30.09 "Hg10 mi
8:50 PM73 °FSunny.6 mph65%30.07 "Hg10 mi
8:20 PM75 °FSunny.6 mph65%30.07 "Hg10 mi
7:50 PM75 °FScattered showers. Partly sunny.7 mph65%30.07 "HgN/A
7:20 PM75 °FScattered showers. Broken clouds.2 mph61%30.07 "HgN/A
6:50 PM77 °FScattered showers. Broken clouds.3 mph51%30.07 "HgN/A
6:20 PM77 °FPartly sunny.9 mph51%30.07 "HgN/A
5:50 PM79 °FPartly sunny.10 mph48%30.07 "HgN/A
5:20 PM81 °FPartly sunny.5 mph45%30.07 "HgN/A
4:50 PM81 °FPartly sunny.5 mph45%30.07 "HgN/A
4:20 PM81 °FBroken clouds.5 mph48%30.07 "HgN/A
3:50 PM79 °FBroken clouds.6 mph48%30.09 "HgN/A
3:20 PM81 °FScattered clouds.7 mph48%30.09 "HgN/A
2:50 PM81 °FScattered clouds.3 mph48%30.09 "HgN/A
2:20 PM82 °FScattered clouds.3 mph45%30.09 "HgN/A
1:50 PM81 °FScattered clouds.3 mph48%30.09 "HgN/A
1:20 PM79 °FBroken clouds.5 mph54%30.09 "HgN/A
12:50 PM79 °FBroken clouds.3 mph54%30.09 "HgN/A
12:20 PM77 °FPartly sunny.2 mph61%30.09 "HgN/A
11:50 AM77 °FPartly sunny.3 mph61%30.09 "HgN/A
11:20 AM75 °FPartly sunny.3 mph65%30.12 "HgN/A
10:50 AM75 °FPartly sunny.2 mph65%30.09 "HgN/A
10:20 AM73 °FPartly sunny.2 mph69%30.12 "HgN/A
9:50 AM72 °FPartly sunny.2 mph73%30.12 "HgN/A
9:20 AM72 °FSunny.2 mph73%30.09 "Hg10 mi
8:50 AM72 °FPassing clouds.3 mph73%30.09 "HgN/A
8:20 AM72 °FSunny.1 mph69%30.09 "Hg10 mi
7:50 AM68 °FBroken clouds.3 mph78%30.09 "HgN/A
7:20 AM66 °FSunny.1 mph88%30.09 "Hg10 mi
6:50 AM63 °FSunny.3 mph100%30.09 "Hg10 mi
6:20 AM63 °FFog.3 mph100%30.09 "HgN/A
5:50 AM63 °FRain. Fog.6 mph100%30.09 "HgN/A
5:20 AM63 °FRain. Fog.6 mph100%30.09 "HgN/A
4:50 AM63 °FClear.3 mph100%30.09 "Hg10 mi
4:20 AM63 °FClear.6 mph100%30.09 "Hg10 mi
3:50 AM63 °FPassing clouds.6 mph100%30.09 "HgN/A
3:20 AM63 °FClear.5 mph100%30.09 "Hg10 mi
2:50 AM63 °FClear.5 mph100%30.09 "Hg10 mi
2:20 AM64 °FClear.5 mph94%30.09 "Hg10 mi
Weather by CustomWeather, © 2016

See weather overviewHow to use our weather pages